DW6366 Weather Reports


Display with metric or nautical units.
time (UTC)temp
F
wind
direction
speed
MPH
gust
MPH
rain 1hr
in
rain 24hr
in
rain mn
in
humidity
%
barometer
mb
20260507151331 62 327 1.0 4.0 0.00 0.00 0.00 53 1016.0
20260507150345 62 349 2.0 9.0 0.00 0.00 0.00 54 1016.0
20260507145339 62 19 1.0 11.0 0.00 0.00 0.00 56 1016.0
20260507144351 62 352 2.0 5.0 0.00 0.00 0.00 56 1016.0
20260507143342 63 2 2.0 5.0 0.00 0.00 0.00 52 1016.0
20260507142343 63 342 1.0 9.0 0.00 0.00 0.00 47 1016.0
20260507141328 63 347 0.0 3.0 0.00 0.00 0.00 47 1016.0
20260507140322 64 86 1.0 8.0 0.00 0.00 0.00 40 1016.1
20260507135328 64 353 0.0 6.0 0.00 0.00 0.00 42 1016.1
20260507134327 64 94 1.0 3.0 0.00 0.00 0.00 43 1016.2
20260507133339 64 48 2.0 6.0 0.00 0.00 0.00 44 1016.2
20260507132331 65 77 6.0 11.0 0.00 0.00 0.00 43 1016.2
20260507131337 68 30 1.0 5.0 0.00 0.00 0.00 41 1016.2
20260507130327 67 95 1.0 12.0 0.00 0.00 0.00 44 1016.2
20260507125339 66 71 5.0 14.0 0.00 0.00 0.00 45 1016.1
20260507124323 65 84 2.0 12.0 0.00 0.00 0.00 46 1016.2
20260507123353 64 92 6.0 11.0 0.00 0.00 0.00 48 1016.1
20260507122328 62 208 5.0 11.0 0.00 0.00 0.00 53 1016.2
20260507121331 62 208 3.0 10.0 0.00 0.00 0.00 51 1016.2
20260507120329 63 91 4.0 9.0 0.00 0.00 0.00 50 1016.2
20260507115334 63 80 6.0 10.0 0.00 0.00 0.00 51 1016.3
20260507114355 66 208 7.0 12.0 0.00 0.00 0.00 44 1016.3
20260507113328 66 104 4.0 10.0 0.00 0.00 0.00 46 1016.3
20260507112320 67 208 4.0 11.0 0.00 0.00 0.00 47 1016.3
20260507111333 66 13 2.0 9.0 0.00 0.00 0.00 48 1016.4
20260507110342 65 46 1.0 12.0 0.00 0.00 0.00 50 1016.4
20260507105347 63 208 1.0 8.0 0.00 0.00 0.00 55 1016.4
20260507104352 62 346 1.0 6.0 0.00 0.00 0.00 56 1016.4
20260507103328 62 359 1.0 5.0 0.00 0.00 0.00 57 1016.5
20260507102341 63 273 2.0 5.0 0.00 0.00 0.00 54 1016.5
20260507101348 62 307 1.0 5.0 0.00 0.00 0.00 57 1016.4
20260507100355 61 8 1.0 6.0 0.00 0.00 0.00 58 1016.4
20260507095342 61 350 1.0 7.0 0.00 0.00 0.00 57 1016.4
20260507094356 61 346 1.0 4.0 0.00 0.00 0.00 58 1016.4
20260507093329 60 358 0.0 3.0 0.00 0.00 0.00 59 1016.3
20260507092337 60 7 1.0 7.0 0.00 0.00 0.00 59 1016.2
20260507091352 60 7 2.0 6.0 0.00 0.00 0.00 61 1016.2
20260507090321 59 13 1.0 5.0 0.00 0.00 0.00 64 1016.2
20260507085331 59 9 1.0 4.0 0.00 0.00 0.00 65 1016.1
20260507084355 59 12 2.0 7.0 0.00 0.00 0.00 66 1016.1
20260507083339 59 344 2.0 4.0 0.00 0.00 0.00 67 1016.1
20260507082332 58 32 1.0 4.0 0.00 0.00 0.00 68 1016.2
20260507081320 58 84 1.0 3.0 0.00 0.00 0.00 70 1016.2
20260507080321 57 348 0.0 6.0 0.00 0.00 0.00 72 1016.1
20260507075332 56 11 1.0 3.0 0.00 0.00 0.00 74 1016.0
20260507074338 55 17 1.0 3.0 0.00 0.00 0.00 74 1015.9
20260507073411 54 3 0.0 3.0 0.00 0.00 0.00 76 1015.9
20260507072319 53 40 1.0 5.0 0.00 0.00 0.00 78 1015.9
20260507071414 53 355 1.0 5.0 0.00 0.00 0.00 81 1015.9
20260507070354 52 348 1.0 4.0 0.00 0.00 0.00 82 1015.9
20260507065345 51 302 2.0 6.0 0.00 0.00 0.00 84 1016.0
20260507064321 50 325 2.0 5.0 0.00 0.00 0.00 85 1015.9
20260507063355 49 42 1.0 3.0 0.00 0.00 0.00 87 1015.8
20260507062334 48 208 1.0 5.0 0.00 0.00 0.00 87 1015.8
20260507061341 48 22 1.0 6.0 0.00 0.00 0.00 88 1015.8
20260507060346 47 1 1.0 5.0 0.00 0.00 0.00 89 1015.8
20260507055351 47 208 1.0 5.0 0.00 0.00 0.00 89 1015.6
20260507054333 46 360 1.0 5.0 0.00 0.00 0.00 89 1015.5
20260507053401 46 355 1.0 4.0 0.00 0.00 0.00 90 1015.5
20260507052320 46 7 1.0 5.0 0.00 0.00 0.00 90 1015.4
20260507051322 45 22 1.0 3.0 0.00 0.00 0.00 90 1015.3
20260507050406 45 15 1.0 2.0 0.00 0.00 0.00 89 1015.2
20260507045351 45 9 0.0 2.0 0.00 0.00 0.00 89 1015.1
20260507044337 45 3 1.0 2.0 0.00 0.00 0.00 89 1015.0
20260507043326 45 9 1.0 2.0 0.00 0.00 0.00 89 1015.0
20260507042355 45 357 0.0 0.0 0.00 0.00 0.00 89 1014.9
20260507041325 45 9 0.0 0.0 0.00 0.00 0.00 89 1014.9
20260507040330 45 9 1.0 2.0 0.00 0.00 0.00 89 1014.7
20260507035324 45 5 0.0 2.0 0.00 0.00 0.00 89 1014.7
20260507034329 45 358 0.0 3.0 0.00 0.00 0.00 89 1014.6
20260507033324 46 14 1.0 3.0 0.00 0.00 0.00 89 1014.6
20260507032323 46 6 0.0 2.0 0.00 0.00 0.00 88 1014.6
20260507031350 46 9 0.0 1.0 0.00 0.00 0.00 88 1014.5
20260507030342 46 15 0.0 2.0 0.00 0.00 0.00 88 1014.4
20260507025351 46 17 0.0 2.0 0.00 0.00 0.00 88 1014.4
20260507024351 46 7 0.0 2.0 0.00 0.00 0.00 88 1014.3
20260507023317 46 348 1.0 3.0 0.00 0.00 0.00 88 1014.3
20260507022351 47 360 1.0 5.0 0.00 0.00 0.00 87 1014.3
20260507021335 47 351 0.0 3.0 0.00 0.00 0.00 87 1014.2
20260507020321 47 350 0.0 3.0 0.00 0.00 0.00 87 1014.2
20260507015412 47 2 1.0 3.0 0.00 0.00 0.00 86 1014.0
20260507014400 47 11 0.0 5.0 0.00 0.00 0.00 86 1014.0
20260507013333 48 5 0.0 3.0 0.00 0.00 0.00 85 1014.0
20260507012356 48 28 0.0 2.0 0.00 0.00 0.00 85 1014.0
20260507011331 48 34 0.0 4.0 0.00 0.00 0.00 85 1013.9
20260507010329 48 28 0.0 5.0 0.00 0.00 0.00 84 1013.9
20260507005358 49 311 1.0 3.0 0.00 0.00 0.00 84 1013.8
20260507004324 49 5 1.0 4.0 0.00 0.00 0.00 83 1013.9
20260507003330 49 5 1.0 3.0 0.00 0.00 0.00 83 1013.8
20260507002327 50 10 1.0 3.0 0.00 0.00 0.00 82 1013.7
20260507001337 50 30 1.0 5.0 0.00 0.00 0.00 82 1013.6
20260507000328 50 344 2.0 6.0 0.00 0.00 0.00 81 1013.6
20260506235339 50 40 2.0 7.0 0.00 0.00 0.00 80 1013.6
20260506234336 51 42 1.0 4.0 0.00 0.00 0.00 79 1013.5
20260506233322 51 5 1.0 4.0 0.00 0.00 0.00 78 1013.4
20260506232341 51 25 1.0 5.0 0.00 0.00 0.00 77 1013.3
20260506231347 52 331 2.0 5.0 0.00 0.00 0.00 76 1013.2
20260506230323 52 9 2.0 7.0 0.00 0.00 0.00 75 1013.2
20260506225350 52 33 2.0 8.0 0.00 0.00 0.00 74 1013.2
20260506224333 52 356 2.0 7.0 0.00 0.00 0.00 74 1013.2
20260506223328 53 357 2.0 7.0 0.00 0.00 0.00 73 1013.1
20260506222323 53 8 2.0 7.0 0.00 0.00 0.00 73 1013.1
20260506221406 53 2 1.0 7.0 0.00 0.00 0.00 72 1013.1
20260506220352 53 23 2.0 6.0 0.00 0.00 0.00 71 1013.0
20260506215339 53 33 2.0 6.0 0.00 0.00 0.00 71 1013.0
20260506214334 53 75 3.0 8.0 0.00 0.00 0.00 71 1012.8
20260506213338 54 360 2.0 5.0 0.00 0.00 0.00 72 1012.9
20260506212329 54 18 2.0 7.0 0.00 0.00 0.00 73 1012.8
20260506211338 54 30 0.0 5.0 0.00 0.00 0.00 73 1012.7
20260506210343 54 356 1.0 2.0 0.00 0.00 0.00 73 1012.6
20260506205333 54 11 1.0 5.0 0.00 0.00 0.00 72 1012.6
20260506204328 54 6 1.0 5.0 0.00 0.00 0.00 71 1012.5
20260506203336 54 46 1.0 4.0 0.00 0.00 0.00 70 1012.5
20260506202321 54 9 0.0 2.0 0.00 0.00 0.00 70 1012.4
20260506201336 54 15 0.0 0.0 0.00 0.00 0.00 70 1012.3
20260506200342 54 14 0.0 3.0 0.00 0.00 0.00 69 1012.3
20260506195333 55 71 0.0 2.0 0.00 0.00 0.00 69 1012.2
20260506194344 55 65 1.0 6.0 0.00 0.00 0.00 68 1012.2
20260506193338 55 4 0.0 2.0 0.00 0.00 0.00 68 1012.0
20260506192332 55 55 0.0 2.0 0.00 0.00 0.00 67 1012.0
20260506191341 55 88 0.0 3.0 0.00 0.00 0.00 67 1011.8
20260506190332 55 70 1.0 2.0 0.00 0.00 0.00 66 1011.7
20260506185331 56 70 0.0 2.0 0.00 0.00 0.00 66 1011.5
20260506184334 56 70 1.0 3.0 0.00 0.00 0.00 65 1011.4
20260506183341 56 76 2.0 3.0 0.00 0.00 0.00 65 1011.3
20260506182348 56 73 1.0 3.0 0.00 0.00 0.00 64 1011.1
20260506181330 56 208 3.0 4.0 0.00 0.00 0.00 63 1011.0
20260506180330 56 70 2.0 5.0 0.00 0.00 0.00 63 1010.9
20260506175341 56 208 3.0 4.0 0.00 0.00 0.00 62 1010.8
20260506174348 56 208 3.0 5.0 0.00 0.00 0.00 62 1010.7
20260506173342 56 208 3.0 9.0 0.00 0.00 0.00 61 1010.6
20260506172324 56 208 5.0 9.0 0.00 0.00 0.00 59 1010.5
20260506171338 56 208 5.0 11.0 0.00 0.00 0.00 60 1010.4
20260506170331 57 87 3.0 10.0 0.00 0.00 0.00 60 1010.4
20260506165323 57 138 7.0 10.0 0.00 0.00 0.00 60 1010.3
20260506164322 57 108 7.0 15.0 0.00 0.00 0.00 60 1010.3
20260506163348 57 59 3.0 12.0 0.00 0.00 0.00 60 1010.3
20260506162402 57 234 6.0 12.0 0.00 0.00 0.00 59 1010.3
20260506161318 57 77 0.0 6.0 0.00 0.00 0.00 61 1010.3
20260506160322 57 60 4.0 10.0 0.00 0.00 0.00 61 1010.3
20260506155333 57 208 8.0 13.0 0.00 0.00 0.00 61 1010.3
20260506154323 57 339 1.0 12.0 0.00 0.00 0.00 60 1010.3
20260506153355 57 208 6.0 11.0 0.00 0.00 0.00 60 1010.3
20260506152324 58 81 6.0 15.0 0.00 0.00 0.00 60 1010.3